Date,TemperatureHighF,TemperatureAvgF,TemperatureLowF,DewpointHighF,DewpointAvgF,DewpointLowF,HumidityHigh,HumidityAvg,HumidityLow,PressureMaxIn,PressureMinIn,WindSpeedMaxMPH,WindSpeedAvgMPH,GustSpeedMaxMPH,PrecipitationSumIn
2013-2-1,32,30,25,19,14,9,64,52,40,30.07,29.71,36,17,38,0.00
2013-2-2,32,26,20,19,13,6,64,55,42,30.26,30.06,26,12,26,0.00
2013-2-3,29,26,24,23,21,17,87,81,62,30.06,29.72,20,9,25,0.00
2013-2-4,30,27,24,23,16,11,86,64,48,29.93,29.71,41,19,43,0.00
2013-2-5,30,26,23,25,16,7,88,64,49,30.03,29.93,24,5,24,0.00
2013-2-6,38,32,27,28,23,10,88,71,45,30.29,29.92,27,10,28,0.03
2013-2-7,30,26,20,23,8,0,75,48,30,30.53,30.29,26,7,26,0.00
2013-2-8,35,32,22,31,27,18,89,85,74,30.49,29.51,57,12,57,0.02
2013-2-9,23,20,15,20,15,8,91,79,62,30.19,29.51,44,22,57,0.00
2013-2-10,44,28,17,27,14,4,78,55,29,30.40,30.19,22,7,24,0.01
2013-2-11,44,37,29,41,32,18,89,83,60,30.32,29.59,14,5,14,0.23
2013-2-12,43,40,36,37,31,28,89,71,58,29.87,29.58,33,16,35,0.01
2013-2-13,46,37,34,34,29,26,84,73,55,29.87,29.68,18,6,18,0.00
2013-2-14,45,38,34,32,27,21,82,67,48,29.99,29.71,18,7,19,0.00
2013-2-15,49,40,34,39,35,29,88,80,64,30.00,29.90,17,8,19,0.00
2013-2-16,39,36,31,34,30,22,88,80,61,29.95,29.66,23,8,25,0.00
2013-2-17,31,24,20,24,15,7,89,70,50,29.68,29.35,44,26,47,0.01
2013-2-18,32,26,18,14,9,3,69,50,29,30.16,29.67,44,22,50,0.00
2013-2-19,47,38,28,40,28,10,88,69,46,30.16,29.53,21,4,21,0.36
2013-2-20,42,33,29,38,23,16,87,66,48,29.78,29.53,37,22,38,0.01
2013-2-21,32,29,27,21,18,14,74,63,51,30.24,29.77,34,20,39,0.00
2013-2-22,41,34,27,29,25,20,79,70,57,30.39,30.22,23,6,28,0.00
2013-2-23,38,37,35,35,32,28,88,83,75,30.33,29.88,13,2,15,0.19
2013-2-24,39,36,31,36,32,28,89,88,87,29.93,29.69,28,11,30,0.00
2013-2-25,44,36,31,36,31,28,89,82,66,30.26,29.92,16,5,16,0.01
2013-2-26,47,39,34,39,34,31,88,81,67,30.35,30.12,13,1,20,0.00
2013-2-27,42,41,38,39,38,35,89,88,85,30.12,29.53,28,10,28,0.19
2013-2-28,50,40,35,43,36,32,89,86,73,29.64,29.52,12,4,13,0.01